IRIDIUM 33 DEB

Satellite information

Favourite Embed

Satellite Type and Status

DEBRISIN ORBIT

Key statistics

Satellite IRIDIUM 33 DEB at a glance.

Uptime

10318

Days in orbit

Revolutions

≈ 14.4

Per day

Orbit

LEO

Low Earth Orbit

Inclination

86.3

Latest

Satellite identification and parameters

Extended collection of information and parameters for IRIDIUM 33 DEB.

Object identification

Identified? True

Debris? True

Object name: IRIDIUM 33 DEB

International designator: 1997-051LJ

Object number (NORAD): 34765

Object ID (CCSDS): 34765

Country: UNITED STATES OF AMERICA (US)

Current information (Y/N): Y

RCS size: SMALL

Orbital parameters

Period: 99.968 minutes

Inclination: 86.3396 deg

SMA: 7135.114 km

Apoapsis: 767.91 km

Periapsis: 746.047 km

RAAN: 33.2465 deg

Eccentricy: 0.00153204

Argument of periapsis: 215.3687 deg

Mean anomaly: 297.1612 deg

Mean motion: 14.40460694 rev/day

Mean motion (dot): 0.00002016 rev/day2

B* drag term: 0.00062745119 1/REarth

Two-line elements (TLE)

Creation date: Dec. 11, 2025, 7:14 p.m.

Reference frame: TEME

Reference center: EARTH

Epoch: Dec. 11, 2025, 2:38 p.m. UTC

TLE line 0: 0 IRIDIUM 33 DEB

TLE line 1: 1 34765U 97051LJ 25345.60978159 .00002016 00000-0 62745-3 0 9997

TLE line 2: 2 34765 86.3396 33.2465 0015320 215.3687 297.1612 14.40460694875970

Live tracking on map

Real-time ground track for satellite IRIDIUM 33 DEB.

In-orbit conjunctions

A list of the most updated potential collisions computed for object IRIDIUM 33 DEB.

Target Orbit TCA Probability of collision Miss distance Type
AVUM DEB (ADAPTOR) SSO 2025-10-11 18:52:41 0.0001415056 312.0 (m) DEBRIS
FENGYUN 1C DEB SSO 2024-12-18 04:31:29 0.0002494351 68.0 (m) DEBRIS
SL-8 R/B LEO 2024-08-11 17:43:53 0.0001999239 260.0 (m) ROCKET BODY

Associated space launch

Iridium provides global mobile telecommunications services using a constellation of 66 low earth orbit satellites in a 86.4° inclined orbit. Although 77 satellites were originally envisioned for the system and spawned the name based on the 77th element in the periodic table, the system has been scaled back. Motorola's Satellite Communications Group designed and manufactured the Iridium satellites with Lockheed Martin providing the LM-700A spacecraft buses.

IRIDIUM 33 DEB was lifted into orbit during the mission ‘Proton-K/17S40 | Iridium 27 to 33’, on board a Proton-K/17S40 space rocket.

The launch took place on Sept. 14, 1997, 1:36 a.m. from 81/23 (81L).

For more information about the launch, click the button.

Launch to space Proton-K/17S40 | Iridium 27 to 33
Proton-K/17S40 | Iridium 27 to 33

Agency: N/A

Status: Launch Successful

Launch date: Sept. 14, 1997, 1:36 a.m. UTC

Rocket: Proton-K/17S40

Launch pad: 81/23 (81L)

Location: Baikonur Cosmodrome, Republic of Kazakhstan

...

Latest news about this satellite

There are no fresh news available about this satellite. Check back as we update our databases every day.


Newsletter sign-up

Weekly statistics, charts and insights to help you stay on top of the space industry.